Regional Weather Roundup
Issued by NWS Albany, NY

Home | Current Version | Previous Version | Text Only | Print | Product List | Glossary On
Versions: 1 2 3 4 5 6 7 8 9 10 11 12 13 14 15 16 17 18 19 20 21 22 23 24 25 26 27 28 29 30 31 32 33 34 35 36 37 38 39 40 41 42 43 44 45 46 47 48 49 50
000
ASUS41 KALY 220910
RWRALY

NEW YORK STATE HOURLY WEATHER ROUNDUP
NATIONAL WEATHER SERVICE ALBANY NY
400 AM EST WED FEB 22 2017

NOTE: "FAIR" INDICATES FEW OR NO CLOUDS BELOW 12,000 FEET WITH NO
SIGNIFICANT WEATHER AND/OR NO OBSTRUCTIONS TO VISIBILITY.

NYZ032-033-038>043-046>054-057>066-NYZ062>081-082-084-221000-
EAST


CITY           SKY/WX    TMP DP  RH WIND       PRES   REMARKS
ALBANY         CLOUDY    40  30  67 S8        30.01F WCI  34
GLENS FALLS    CLOUDY    39  29  67 S6        30.00S WCI  35
POUGHKEEPSIE   NOT AVBL
NEWBURGH       CLOUDY    41  34  75 CALM      30.04F
NEW YORK CITY  CLOUDY    45  35  68 SW7       30.08R
CENTRAL PARK   CLOUDY    43  34  70 VRB5      30.09S
$$

NYZ005>009-017-018-044>046-055-056-221000-
CENTRAL


CITY           SKY/WX    TMP DP  RH WIND       PRES   REMARKS
FULTON         CLOUDY    40  32  73 CALM      29.94S
SYRACUSE       CLOUDY    35  32  88 CALM      29.94S
ROME           CLOUDY    38  31  76 E7        29.98S WCI  33
ELMIRA         NOT AVBL
BINGHAMTON     NOT AVBL
$$

NYZ026>034-041>043-087-221000-
NORTH


CITY           SKY/WX    TMP DP  RH WIND       PRES   REMARKS
WATERTOWN      CLOUDY    45  33  63 S3        29.94S
FORT DRUM      NOT AVBL
OGDENSBURG     MOCLDY    38  32  78 CALM      29.93S
MASSENA        CLOUDY    35  32  88 CALM      29.94F
SARANAC LAKE   CLOUDY    37  32  82 SW6       29.91S WCI  32
PLATTSBURGH    NOT AVBL
$$

NYZ001>004-010>016-019>021-085-221000-
WEST


CITY           SKY/WX    TMP DP  RH WIND       PRES   REMARKS
NIAGARA FALLS  FOG       37  35  92 CALM      29.91S VSB 1/4
BUFFALO        MOCLDY    43  41  93 NE5       29.91S FOG
DUNKIRK        CLOUDY    44  40  85 CALM      29.92R
JAMESTOWN      CLOUDY    46  32  57 S6        29.91S
WELLSVILLE     CLOUDY    46  33  60 CALM      29.94S
ROCHESTER      CLOUDY    42  33  70 CALM      29.93S
PENN YAN       PTCLDY    46  29  51 S7        29.93F
$$

             KEY
       WCI = WIND CHILL INDEX
       VSB = VISIBILITY
       HX  = HEAT INDEX
$$



USA.gov is the U.S. government's official web portal to all federal, state and local government web resources and services.